map of SJK home
Great Circle Mapper logo
SJK - Airport
Location
City:  São José dos Campos, São Paulo, Brazil
Name:Professor Urbano Ernesto Stumpf
ICAO / IATA:SBSJ / SJK

Details
Type:Airport (Aerodrome, Airfield)
Use:Public/Civil, Military
Latitude:23°13'41"S (-23.228171)
Longitude:45°51'46"W (-45.862738)
Datum:WGS 1984
Elevation:2120 ft (646 m)
Variation:21.41°W (WMM2015 magnetic declination)
-0.11° annual change
Runways:1
Longest:8779 × 148 ft (2676 × 45 m), paved

Time
Time Zone:UTC-3 (DST-2)
Local Time:

Weather
METAR:SBSJ 210100Z 00000KT CAVOK 25/21 Q1016
TAF:SBSJ 202100Z 2100/2124 12005KT 9999 SCT020 TN21/2109Z TX24/2112Z
BECMG 2105/2107 04005KT 4000 BR BKN010
BECMG 2111/2113 9999 NSW BKN025 PROB40 2117/2121 23005KT 8000 TSRA BKN025 FEW030CB
RMK PHQ

Related Locations
Nearby:
Farthest:MMD: 12183 mi / 19606 km
Minami Daito Jima, Okinawa, JP

Find:

   beyond  
but within

Other Information
Maps:
NOTAMs:
Links:
Sources:

  
flag of Brazil
flag of São Paulo
  

Sectional Chart

Flight Planning
at skyvector.com

Satellite Image

Google Maps Satellite View

 

Copyright © 2004-2015 Karl L. Swartz. All rights reserved.
The Great Circle Mapper name and logo are trademarks of the Great Circle Mapper.
All other trademarks mentioned herein belong to their respective owners.
Please see credits for attibutions and further copyright information.

  Follow gcmap on Facebook Follow gcmap on Twitter Follow gcmap on Google+

hCard Microformat

Geo Microformat